Temperature
28 28 28 28 28 28 27 27 27 27 27 28 28 28 27 26 24 23 22 21 20 20 19 18 18 17 16 16 15 14 14 13 12 12 11 11 10 10 10 10 10 9 9 9
27 28 28 27 27 28 27 27 27 27 27 29 27 26 25 25 24 23 22 22 21 20 19 18 18 17 17 16 15 14 13 13 12 12 11 11 10 10 10 10 9 9 9 9
26 28 27 26 28 28 27 28 27 27 28 28 27 26 26 25 24 23 23 22 21 20 20 19 18 18 17 16 15 14 13 13 12 12 11 11 10 10 10 10 9 9 9 9
26 26 25 27 29 28 27 28 28 27 28 27 26 25 25 24 24 24 23 22 21 21 20 19 18 18 17 16 15 14 13 13 12 12 11 11 10 10 10 9 9 9 9 9
26 26 26 28 28 28 27 27 28 28 27 27 25 25 25 24 24 23 23 22 21 21 20 19 18 18 17 16 15 14 14 13 12 12 11 11 10 10 10 9 9 9 9 9
25 25 25 27 27 27 27 26 28 27 27 27 25 26 27 26 24 23 23 22 21 21 20 19 19 18 17 16 15 14 14 13 12 12 11 11 10 10 10 9 9 9 9 9
25 25 26 27 26 26 26 25 26 26 26 26 26 26 26 25 24 23 23 22 21 21 20 19 19 18 17 16 16 15 14 13 12 12 11 11 10 10 10 9 9 9 9 9
25 25 25 26 26 26 24 23 24 24 24 24 24 24 24 24 23 23 22 22 21 21 20 19 19 18 17 17 16 14 14 13 13 12 11 11 10 10 9 9 9 9 9 9
26 26 24 23 22 21 21 21 22 22 22 23 23 23 23 23 22 22 21 21 20 20 20 19 19 18 18 17 15 15 14 14 13 12 11 11 10 10 9 9 9 9 9 9
25 26 23 21 20 19 19 19 19 20 20 21 21 22 21 21 21 20 20 20 19 19 19 18 18 18 18 16 15 15 14 14 13 12 12 11 10 10 10 10 10 9 9 9
24 24 23 20 18 17 17 18 18 18 19 19 19 19 19 19 19 19 19 18 18 18 18 18 18 18 17 16 15 15 14 14 13 12 11 11 10 10 10 10 9 9 9 9
23 20 21 18 17 16 17 17 17 17 17 17 18 18 18 18 17 17 17 17 17 17 17 16 16 16 16 16 15 15 14 13 13 12 12 11 11 11 10 10 10 9 9 9
18 18 17 16 16 16 17 17 17 16 16 16 16 16 16 16 16 16 16 16 16 16 16 16 16 16 16 15 14 14 14 13 13 12 12 11 11 11 11 10 10 9 9 9
16 16 16 16 16 16 16 16 16 16 16 15 15 15 15 15 15 15 15 15 15 15 15 15 15 15 15 14 14 14 13 13 12 12 11 11 11 10 10 10 10 10 9 9
15 15 15 15 15 15 15 15 15 15 15 14 14 14 14 14 14 14 14 14 14 14 14 14 14 14 13 13 13 13 12 12 12 12 11 11 11 10 10 10 9 9 9 9
15 15 15 14 14 14 14 14 14 14 14 14 13 13 13 13 13 12 12 12 12 12 12 12 12 12 12 12 12 12 12 12 12 12 11 11 11 10 10 10 10 9 9 9
14 14 14 13 13 13 13 13 13 13 13 13 13 12 12 12 12 12 11 11 11 11 11 11 11 11 11 11 11 11 11 12 11 11 11 11 11 10 10 10 10 9 9 9
12 12 12 12 12 12 12 12 12 12 12 12 12 12 11 11 11 11 11 11 11 11 11 10 10 10 10 10 10 10 11 11 11 11 11 10 10 10 10 10 9 9 9 9
12 12 12 11 11 11 11 11 11 11 11 11 11 11 11 10 10 10 10 10 10 10 10 10 9 9 9 9 9 9 10 10 10 10 10 10 9 9 9 9 9 9 9 9
11 11 11 11 11 11 11 11 11 10 10 10 10 10 10 10 10 10 10 10 10 10 9 9 8 9 9 9 9 9 9 9 10 10 9 9 9 9 9 9 9 9 8 8
11 11 11 11 11 11 10 10 10 10 10 10 10 10 9 9 9 9 9 10 9 9 8 8 8 8 8 8 8 8 9 9 9 9 9 9 9 9 8 8 8 8 8 8
11 11 11 10 10 10 10 10 10 10 9 9 9 9 9 9 9 9 9 9 9 8 8 8 8 8 8 7 7 8 8 8 8 8 8 8 8 8 8 8 7 7 7 7
10 10 10 10 10 9 9 9 10 9 9 9 9 9 9 9 9 9 9 9 8 8 7 7 7 7 7 6 7 7 7 7 7 7 7 7 7 7 7 7 7 7 7 7
10 10 10 9 9 9 9 9 9 9 9 9 9 9 9 9 9 9 9 8 7 7 7 6 6 6 6 6 6 6 6 6 6 6 6 6 6 6 6 6 6 6 6 7
9 9 9 9 9 9 9 9 9 9 9 9 9 9 9 9 9 9 8 7 7 6 6 6 5 5 5 5 5 5 5 5 5 5 5 5 5 5 5 5 5 6 6 6
9 9 9 9 9 8 9 9 9 9 9 9 9 9 9 9 8 8 7 7 6 6 5 5 4 4 4 4 4 4 4 4 4 4 4 4 4 4 5 5 5 5 6 6
9 9 9 9 9 9 9 9 9 9 9 9 8 8 8 8 8 7 6 6 5 5 4 4 4 3 3 3 3 3 3 3 3 3 3 4 4 4 4 4 5 5 5 6
Wind_Speed
8 6 7 9 10 9 11 12 13 12 10 9 4 5 6 7 9 10 10 11 11 10 9 9 9 8 7 7 7 7 8 9 9 9 9 10 10 11 11 11 12 12 12 12
10 9 8 11 11 11 10 11 11 11 11 6 1 4 5 7 9 10 11 11 11 11 10 10 9 9 8 7 7 7 8 9 9 9 9 10 10 11 11 12 12 12 12 13
11 8 9 11 6 5 5 5 7 9 7 2 2 4 6 7 9 10 10 10 10 11 10 10 9 9 8 7 7 7 8 9 9 9 10 10 11 11 12 12 12 12 12 13
10 9 10 5 1 4 6 7 7 8 7 4 3 3 5 7 8 9 10 10 10 10 10 10 9 9 8 7 7 8 8 9 9 9 10 10 11 11 12 12 12 12 12 13
8 10 9 7 4 4 6 8 6 5 4 3 2 5 8 9 10 11 10 10 10 10 10 10 10 9 8 8 8 8 9 9 9 9 10 10 11 11 11 11 12 12 13 13
7 8 8 2 4 0 5 7 3 2 5 5 4 8 7 2 9 12 12 11 11 10 10 10 10 9 9 9 9 9 9 9 9 9 10 11 12 12 11 11 12 13 13 13
9 9 8 4 3 3 6 5 10 8 8 7 8 10 9 5 7 10 12 12 12 12 12 11 11 10 10 10 10 9 8 8 9 9 10 11 11 11 12 12 12 13 14 14
6 8 3 7 2 3 7 11 11 11 11 11 12 13 12 10 9 10 11 12 13 12 12 11 11 11 11 11 9 8 8 9 9 10 10 10 11 11 12 12 13 13 13 13
4 4 6 7 6 8 9 11 12 12 13 12 13 13 13 11 10 10 11 11 11 13 12 11 12 12 12 11 8 8 9 9 10 10 10 10 11 12 12 11 11 11 11 12
6 4 4 8 9 10 10 10 11 11 11 10 10 11 11 9 8 8 9 10 10 12 12 12 12 12 12 9 8 9 9 10 10 10 11 11 10 10 11 11 11 11 11 11
9 3 0 8 11 11 10 10 11 11 11 11 10 10 9 8 8 7 7 6 7 9 11 11 10 10 9 9 9 10 10 10 11 11 11 10 11 10 11 11 10 11 12 12
3 4 3 5 9 10 10 12 13 13 13 14 13 12 12 10 9 8 7 6 5 6 7 7 7 7 8 9 10 11 10 11 10 10 9 10 10 11 12 14 13 15 17 16
1 4 6 6 8 9 10 11 12 13 14 13 14 13 12 11 10 10 9 7 5 4 5 6 7 8 9 9 11 13 13 12 10 10 10 10 10 11 11 10 15 18 19 19
6 6 8 8 8 10 10 11 11 13 14 14 13 13 13 12 12 11 11 10 8 7 7 6 7 9 9 10 12 14 14 13 12 11 10 10 10 10 11 11 12 11 11 16
9 9 9 8 9 10 11 12 13 14 14 14 13 13 14 13 13 12 12 11 10 10 9 9 10 10 9 10 12 14 13 12 11 11 11 11 10 10 11 12 11 11 11 9
10 9 9 9 10 11 12 13 13 13 13 14 14 13 13 12 12 12 12 12 12 13 12 12 12 12 12 11 12 12 13 14 12 11 11 10 10 10 11 11 11 11 10 10
8 8 8 9 10 11 11 12 12 13 14 14 14 14 13 13 13 13 13 14 13 13 13 12 13 14 15 13 13 12 12 11 12 12 11 11 10 10 10 10 10 10 10 8
8 7 6 7 8 10 11 12 12 13 13 14 14 14 13 13 14 14 14 15 15 15 14 14 15 17 16 15 13 12 12 12 11 11 10 9 10 10 10 10 10 11 10 9
6 6 6 7 8 10 11 12 13 13 13 13 13 13 13 13 13 14 15 16 16 15 15 17 17 18 18 15 12 11 12 12 11 10 9 8 9 10 10 10 10 9 9 9
4 5 7 9 10 11 11 12 13 13 13 13 13 13 14 14 14 15 15 15 13 14 17 18 19 18 17 14 11 12 12 12 11 9 9 9 9 9 8 9 9 8 8 8
6 8 10 11 11 12 12 13 13 13 13 13 13 14 15 15 15 15 15 15 15 14 17 17 16 15 15 14 13 13 12 11 10 9 8 8 8 8 8 8 7 7 8 8
8 10 12 12 13 13 13 13 13 13 13 14 15 16 16 16 16 16 15 13 15 13 15 16 16 15 15 16 14 13 11 10 8 7 6 6 6 6 6 7 7 7 7 7
10 11 12 13 13 14 14 14 14 14 14 15 16 17 17 16 15 15 15 13 14 14 15 15 14 15 16 15 12 10 9 7 6 5 4 4 5 5 5 6 6 6 6 6
11 12 12 13 14 15 15 15 15 14 15 16 16 16 16 15 14 13 13 13 13 13 15 13 13 14 15 12 10 8 5 3 2 2 2 2 3 4 4 5 5 5 5 6
12 13 14 15 15 14 15 15 16 15 16 14 16 16 15 13 14 14 14 16 14 13 14 12 12 12 11 9 8 6 4 3 2 2 2 3 3 3 3 4 5 5 6 5
13 13 13 14 14 13 14 13 13 13 14 14 14 14 14 14 15 14 12 14 15 13 12 10 11 10 8 8 7 5 4 3 4 3 3 3 3 3 3 4 5 5 5 5
14 14 12 12 12 12 12 12 13 13 14 14 14 15 15 14 13 13 14 12 12 11 9 8 8 8 7 7 6 6 5 5 5 5 5 4 4 4 4 5 5 5 5 5
Wind_Direction
272 277 277 283 285 269 257 272 282 289 292 299 288 242 228 219 210 207 203 202 205 208 207 209 213 219 229 241 248 255 262 267 268 272 276 280 282 282 283 282 282 283 282 281
262 259 269 276 278 276 268 267 272 278 282 302 288 222 219 216 213 214 214 213 212 213 214 213 215 221 228 237 245 249 259 268 272 276 278 280 283 284 284 284 284 283 281 281
267 268 270 268 265 270 268 267 276 284 304 350 266 231 234 230 226 228 227 222 219 217 217 216 216 218 225 234 242 249 258 266 272 275 278 282 286 288 287 288 286 283 281 280
268 269 264 277 194 271 282 287 280 281 288 276 272 267 249 242 239 235 231 227 222 221 216 213 213 212 219 229 238 251 259 267 272 275 280 284 286 287 288 288 287 284 283 281
264 262 259 257 218 239 271 291 298 287 281 259 237 254 247 225 227 234 233 228 224 222 218 211 210 209 214 229 241 252 261 268 273 277 281 283 285 288 289 288 286 284 282 281
251 269 270 295 79 92 269 273 19 323 295 284 226 278 303 224 214 226 229 225 219 216 213 204 205 204 214 231 242 252 263 269 274 276 277 280 285 288 289 286 283 284 285 284
250 258 264 34 64 214 259 353 0 331 310 292 262 275 304 280 236 229 228 224 217 214 212 208 200 200 215 232 243 252 261 267 269 271 272 274 280 284 285 284 286 286 286 284
252 261 282 62 17 324 340 336 330 322 311 299 284 279 281 274 258 245 237 229 218 213 215 207 199 202 218 231 241 250 256 261 265 268 272 277 278 280 282 283 283 282 282 283
274 299 43 35 11 355 340 325 324 320 315 306 292 287 286 279 270 260 250 242 228 221 218 208 201 206 223 230 232 241 250 258 264 268 269 271 274 279 280 278 279 286 289 289
270 274 41 35 25 14 2 347 340 337 333 326 314 311 311 306 298 285 270 255 240 230 226 217 209 211 222 230 228 233 246 257 263 266 267 267 270 274 278 282 284 286 287 289
261 285 94 50 24 12 13 15 15 15 14 8 0 354 348 342 335 323 307 284 258 239 234 229 216 215 219 222 223 230 241 252 261 265 267 271 270 271 275 278 283 285 290 292
308 29 354 31 25 23 29 30 28 26 27 26 23 17 13 10 4 355 345 330 299 268 250 238 223 220 220 222 223 229 240 248 256 261 264 267 273 274 246 242 253 247 250 261
30 62 80 76 46 34 36 35 34 33 28 24 22 18 16 12 9 6 3 355 333 295 261 244 232 231 228 222 227 230 239 247 255 261 264 265 269 276 284 266 236 237 241 244
119 114 87 65 50 38 34 32 33 32 28 24 19 15 12 8 7 5 1 354 342 322 300 281 267 260 252 239 233 236 241 246 246 255 258 263 267 272 277 285 291 287 255 235
96 96 92 75 53 39 29 23 21 18 13 12 11 8 5 2 359 358 355 350 343 331 322 311 301 294 288 271 255 248 247 249 245 249 254 259 264 268 272 276 280 285 290 276
106 92 77 59 40 26 18 13 7 1 359 357 358 357 355 353 353 354 354 352 346 340 335 328 321 319 312 293 274 263 254 248 244 248 253 256 259 265 270 275 279 282 286 290
99 73 49 33 21 11 4 358 352 349 346 345 345 343 344 345 345 348 347 345 339 332 330 331 331 332 322 305 286 274 268 254 222 237 249 256 261 266 272 276 281 284 287 291
77 59 36 15 0 352 348 346 343 340 337 334 334 335 336 336 337 339 338 335 331 326 328 331 334 328 317 308 296 284 275 266 252 244 246 250 259 266 271 274 277 282 287 283
58 35 14 0 350 342 338 336 335 333 332 331 329 327 326 326 328 329 330 328 324 324 332 331 329 318 316 313 304 287 277 270 260 252 251 248 252 261 267 273 277 283 287 292
21 1 350 342 340 337 332 331 329 327 327 326 323 321 320 321 321 321 322 318 321 329 328 327 322 316 315 317 318 300 287 274 265 259 254 256 259 264 269 273 280 288 292 293
339 336 333 333 331 328 327 326 323 320 320 320 318 317 316 315 315 315 315 314 321 329 326 317 315 318 320 327 316 299 289 276 265 257 253 257 264 270 276 282 289 294 296 298
324 326 325 325 322 320 320 317 312 311 314 315 316 315 313 311 311 311 309 312 317 332 325 320 319 330 330 320 307 299 291 277 263 256 255 261 269 277 283 289 294 300 304 306
315 316 315 314 313 311 308 306 306 310 311 312 310 308 308 309 308 307 309 319 321 330 323 317 328 328 318 311 306 297 286 275 262 256 259 271 281 288 293 298 304 311 312 313
307 307 306 305 304 301 299 303 305 305 303 301 301 305 306 304 304 308 314 320 322 324 318 322 325 320 311 312 312 309 303 298 285 270 275 290 301 303 306 312 318 321 319 322
299 299 298 299 298 298 302 301 299 298 298 303 305 308 307 307 310 313 315 317 323 321 319 324 328 323 321 328 335 340 341 354 354 347 353 344 334 328 330 332 332 327 325 330
293 292 296 296 295 293 293 295 299 303 305 306 308 310 312 313 313 314 316 319 324 328 324 326 330 331 335 340 349 356 2 18 26 19 9 358 354 353 353 347 338 334 331 335
288 286 284 284 288 294 299 301 300 301 303 305 309 312 312 312 315 320 323 325 329 331 335 339 343 346 349 358 11 22 24 24 25 17 10 7 3 1 356 348 344 341 339 342
Height
1493 1490 1492 1493 1493 1492 1496 1496 1498 1493 1490 1486 1486 1490 1493 1496 1499 1502 1505 1507 1508 1510 1511 1512 1513 1513 1513 1513 1513 1512 1511 1510 1509 1508 1506 1504 1502 1499 1497 1495 1493 1491 1488 1486
1495 1489 1490 1493 1490 1489 1489 1490 1490 1489 1488 1482 1486 1490 1492 1494 1497 1499 1501 1502 1504 1506 1507 1508 1509 1509 1510 1509 1509 1508 1507 1506 1505 1503 1501 1499 1497 1495 1492 1490 1487 1485 1483 1480
1497 1487 1492 1495 1485 1485 1485 1484 1486 1487 1483 1483 1486 1488 1490 1491 1493 1495 1496 1498 1500 1502 1503 1504 1505 1505 1505 1505 1504 1503 1502 1501 1500 1499 1497 1495 1493 1490 1488 1485 1482 1480 1477 1475
1494 1495 1508 1488 1478 1480 1483 1481 1480 1481 1481 1483 1486 1487 1488 1489 1490 1491 1493 1494 1496 1497 1498 1499 1500 1500 1500 1501 1500 1499 1498 1497 1496 1494 1492 1490 1488 1485 1483 1480 1477 1474 1472 1469
1493 1495 1492 1480 1476 1478 1481 1481 1476 1478 1480 1481 1484 1485 1484 1485 1486 1487 1489 1490 1492 1493 1494 1495 1495 1496 1496 1496 1496 1495 1494 1493 1492 1490 1488 1485 1483 1480 1477 1474 1471 1469 1466 1464
1493 1500 1501 1482 1476 1479 1481 1482 1475 1478 1479 1479 1482 1480 1477 1479 1481 1483 1484 1485 1487 1488 1489 1489 1490 1490 1491 1491 1491 1491 1490 1489 1487 1485 1482 1480 1478 1475 1472 1469 1466 1463 1461 1458
1490 1493 1484 1476 1478 1480 1487 1486 1480 1479 1479 1479 1478 1478 1478 1478 1478 1479 1479 1480 1481 1482 1483 1484 1484 1485 1485 1486 1486 1485 1484 1483 1481 1479 1477 1475 1472 1469 1467 1464 1461 1457 1454 1451
1487 1492 1488 1479 1479 1481 1485 1484 1482 1481 1480 1478 1477 1476 1475 1475 1475 1475 1475 1475 1476 1476 1477 1478 1478 1479 1479 1480 1480 1480 1479 1477 1475 1474 1472 1470 1467 1464 1461 1458 1455 1452 1448 1445
1480 1482 1483 1484 1485 1487 1486 1484 1482 1480 1478 1476 1474 1472 1471 1471 1470 1470 1470 1470 1470 1470 1471 1471 1472 1473 1474 1475 1475 1474 1473 1472 1470 1468 1466 1464 1462 1459 1456 1454 1450 1447 1444 1441
1480 1476 1482 1486 1487 1487 1486 1484 1481 1479 1476 1473 1471 1469 1468 1467 1466 1465 1464 1464 1464 1464 1465 1465 1466 1467 1468 1469 1469 1468 1467 1466 1465 1463 1461 1459 1456 1454 1451 1449 1446 1442 1439 1436
1479 1479 1483 1486 1488 1488 1486 1483 1481 1478 1475 1473 1470 1468 1466 1464 1462 1461 1460 1459 1458 1458 1458 1460 1461 1462 1462 1463 1463 1462 1461 1460 1459 1457 1455 1452 1450 1447 1445 1442 1440 1436 1434 1431
1478 1486 1486 1490 1490 1488 1486 1483 1481 1478 1476 1473 1471 1469 1466 1464 1462 1460 1458 1456 1455 1454 1454 1455 1455 1456 1456 1457 1457 1455 1454 1453 1453 1451 1449 1447 1444 1442 1438 1435 1432 1429 1426 1424
1486 1487 1489 1490 1490 1488 1487 1485 1482 1480 1478 1475 1472 1470 1467 1465 1462 1460 1457 1455 1453 1451 1450 1450 1449 1449 1449 1449 1449 1448 1447 1446 1445 1444 1443 1441 1438 1436 1433 1430 1426 1423 1420 1417
1487 1489 1490 1491 1491 1489 1488 1486 1484 1482 1479 1476 1474 1471 1468 1465 1462 1459 1457 1454 1452 1450 1448 1447 1445 1444 1443 1442 1441 1440 1439 1439 1437 1436 1435 1433 1432 1429 1427 1424 1421 1417 1415 1411
1489 1490 1491 1492 1491 1490 1488 1486 1484 1481 1479 1476 1473 1470 1468 1465 1462 1459 1456 1453 1450 1448 1446 1444 1441 1440 1438 1436 1434 1433 1432 1431 1430 1429 1428 1426 1425 1423 1420 1417 1414 1411 1409 1406
1491 1492 1492 1492 1491 1490 1488 1486 1483 1481 1479 1476 1473 1470 1468 1465 1462 1458 1455 1452 1449 1446 1443 1441 1438 1435 1433 1430 1428 1426 1424 1423 1422 1421 1420 1419 1418 1416 1414 1412 1409 1406 1403 1401
1492 1493 1493 1492 1491 1490 1488 1486 1483 1481 1478 1475 1472 1469 1466 1463 1460 1457 1453 1450 1447 1444 1441 1438 1435 1431 1428 1425 1422 1420 1418 1416 1414 1413 1413 1412 1411 1410 1408 1405 1403 1400 1398 1396
1493 1493 1493 1492 1490 1488 1486 1484 1482 1479 1476 1473 1470 1467 1464 1461 1458 1454 1451 1447 1444 1441 1438 1435 1431 1426 1422 1419 1415 1413 1411 1409 1408 1406 1406 1405 1404 1403 1401 1399 1397 1395 1392 1390
1493 1492 1492 1491 1489 1487 1485 1482 1479 1477 1473 1470 1467 1464 1461 1459 1455 1452 1448 1445 1441 1437 1433 1430 1425 1420 1417 1413 1409 1406 1404 1402 1401 1400 1399 1398 1397 1396 1395 1393 1391 1389 1387 1385
1492 1491 1490 1489 1487 1485 1482 1480 1477 1474 1471 1468 1465 1462 1458 1455 1452 1449 1445 1442 1438 1434 1430 1425 1420 1415 1411 1407 1403 1400 1398 1396 1394 1393 1393 1392 1391 1390 1389 1388 1386 1384 1382 1380
1490 1489 1488 1486 1484 1482 1479 1477 1474 1471 1468 1465 1462 1458 1455 1452 1448 1445 1440 1437 1433 1429 1424 1419 1415 1411 1406 1401 1397 1394 1391 1389 1388 1387 1386 1386 1386 1385 1384 1383 1381 1380 1378 1376
1488 1486 1485 1483 1481 1478 1476 1473 1470 1467 1464 1462 1458 1455 1451 1447 1444 1440 1436 1433 1428 1424 1419 1415 1410 1405 1400 1395 1391 1387 1385 1382 1381 1381 1381 1380 1380 1380 1379 1378 1377 1375 1374 1372
1485 1483 1481 1479 1477 1474 1472 1469 1466 1463 1460 1457 1454 1450 1447 1443 1439 1435 1431 1427 1423 1418 1414 1409 1404 1398 1393 1388 1384 1381 1378 1376 1375 1375 1375 1375 1375 1375 1374 1373 1372 1371 1370 1368
1481 1479 1477 1475 1473 1470 1467 1464 1461 1459 1455 1452 1449 1445 1442 1437 1433 1430 1426 1422 1418 1413 1408 1403 1397 1392 1387 1383 1379 1376 1373 1372 1371 1371 1371 1371 1371 1370 1370 1369 1368 1367 1366 1365
1477 1475 1473 1470 1468 1464 1461 1458 1455 1452 1449 1446 1443 1440 1436 1433 1429 1425 1421 1417 1412 1407 1402 1397 1392 1387 1383 1378 1375 1372 1370 1369 1368 1367 1368 1367 1367 1367 1366 1366 1365 1364 1363 1362
1472 1470 1467 1465 1462 1459 1456 1453 1450 1447 1444 1441 1438 1435 1431 1428 1424 1420 1416 1412 1407 1402 1397 1392 1387 1383 1379 1376 1373 1370 1368 1367 1366 1366 1365 1365 1365 1364 1364 1363 1362 1362 1361 1360
1466 1463 1461 1458 1455 1453 1451 1448 1445 1442 1439 1436 1433 1430 1426 1423 1419 1415 1411 1407 1402 1397 1393 1388 1384 1381 1377 1374 1371 1369 1367 1366 1365 1365 1364 1363 1363 1362 1362 1361 1361 1360 1359 1358